QPF
0.00 0.00 0.00 0.00 0.00 0.00 0.00 0.00 0.00 0.00 0.00 0.00 0.00 0.00 0.00 0.00 0.00 0.00 0.00 0.00 0.00 0.00 0.00 0.00 0.00 0.00 0.00 0.01 0.01 0.02 0.02 0.03 0.02 0.02 0.02 0.02 0.02 0.02 0.02 0.02 0.02 0.03 0.04 0.03
0.00 0.00 0.00 0.00 0.00 0.00 0.00 0.00 0.00 0.00 0.00 0.00 0.00 0.00 0.00 0.00 0.00 0.00 0.00 0.00 0.00 0.00 0.00 0.00 0.00 0.00 0.00 0.01 0.01 0.02 0.02 0.02 0.02 0.01 0.01 0.01 0.01 0.01 0.02 0.02 0.03 0.03 0.03 0.02
0.00 0.00 0.00 0.00 0.00 0.00 0.00 0.00 0.00 0.00 0.00 0.00 0.00 0.00 0.00 0.00 0.00 0.00 0.00 0.00 0.00 0.00 0.00 0.00 0.00 0.00 0.00 0.00 0.01 0.01 0.02 0.02 0.02 0.02 0.01 0.01 0.01 0.02 0.02 0.03 0.04 0.04 0.03 0.02
0.00 0.00 0.00 0.00 0.00 0.00 0.00 0.00 0.00 0.00 0.00 0.00 0.00 0.00 0.00 0.00 0.00 0.00 0.00 0.00 0.00 0.00 0.00 0.00 0.00 0.00 0.00 0.00 0.00 0.01 0.02 0.02 0.02 0.02 0.01 0.02 0.02 0.03 0.03 0.03 0.04 0.04 0.04 0.03
0.00 0.00 0.00 0.00 0.00 0.00 0.00 0.00 0.00 0.00 0.00 0.00 0.00 0.00 0.00 0.00 0.00 0.00 0.00 0.00 0.00 0.00 0.00 0.00 0.00 0.00 0.00 0.00 0.00 0.00 0.01 0.01 0.02 0.02 0.02 0.01 0.01 0.02 0.02 0.02 0.03 0.04 0.04 0.04
0.00 0.00 0.00 0.00 0.00 0.00 0.00 0.00 0.00 0.01 0.00 0.00 0.00 0.00 0.00 0.00 0.00 0.00 0.00 0.00 0.00 0.00 0.00 0.00 0.00 0.00 0.00 0.00 0.00 0.00 0.01 0.01 0.01 0.01 0.01 0.01 0.01 0.02 0.02 0.03 0.03 0.03 0.04 0.04
0.00 0.00 0.00 0.00 0.00 0.00 0.00 0.00 0.01 0.01 0.01 0.00 0.00 0.00 0.00 0.00 0.00 0.00 0.00 0.00 0.00 0.00 0.00 0.00 0.00 0.00 0.00 0.00 0.00 0.00 0.00 0.01 0.01 0.01 0.01 0.01 0.01 0.02 0.02 0.03 0.03 0.04 0.03 0.04
0.00 0.00 0.00 0.00 0.00 0.00 0.00 0.00 0.00 0.00 0.00 0.00 0.00 0.00 0.00 0.00 0.00 0.00 0.00 0.00 0.00 0.00 0.00 0.00 0.00 0.00 0.00 0.00 0.00 0.00 0.01 0.01 0.01 0.01 0.01 0.01 0.01 0.02 0.02 0.03 0.03 0.03 0.03 0.04
0.00 0.00 0.00 0.00 0.00 0.00 0.00 0.00 0.00 0.00 0.00 0.00 0.00 0.00 0.00 0.00 0.00 0.00 0.00 0.00 0.00 0.00 0.00 0.00 0.00 0.00 0.00 0.00 0.00 0.00 0.00 0.00 0.00 0.00 0.01 0.01 0.01 0.01 0.02 0.03 0.03 0.01 0.02 0.03
0.00 0.00 0.00 0.00 0.00 0.00 0.00 0.00 0.00 0.00 0.00 0.00 0.00 0.00 0.00 0.00 0.00 0.00 0.00 0.00 0.00 0.00 0.00 0.00 0.00 0.00 0.00 0.00 0.00 0.00 0.01 0.00 0.00 0.01 0.01 0.01 0.01 0.01 0.02 0.02 0.02 0.02 0.02 0.02
0.00 0.00 0.00 0.00 0.00 0.00 0.00 0.00 0.00 0.00 0.00 0.00 0.00 0.00 0.00 0.00 0.00 0.00 0.00 0.00 0.00 0.00 0.00 0.00 0.00 0.00 0.00 0.01 0.00 0.01 0.01 0.01 0.01 0.01 0.01 0.01 0.01 0.01 0.01 0.01 0.01 0.02 0.02 0.02
0.00 0.00 0.00 0.00 0.00 0.00 0.00 0.00 0.00 0.00 0.00 0.00 0.00 0.00 0.00 0.00 0.00 0.00 0.00 0.00 0.00 0.00 0.00 0.01 0.01 0.01 0.02 0.02 0.01 0.01 0.01 0.01 0.01 0.01 0.01 0.01 0.01 0.01 0.01 0.00 0.01 0.01 0.01 0.01
0.00 0.00 0.00 0.00 0.00 0.00 0.00 0.00 0.00 0.00 0.00 0.00 0.00 0.00 0.00 0.00 0.00 0.00 0.00 0.00 0.00 0.01 0.01 0.01 0.02 0.01 0.02 0.02 0.01 0.01 0.01 0.01 0.01 0.01 0.02 0.01 0.01 0.00 0.01 0.01 0.01 0.01 0.00 0.00
0.00 0.00 0.00 0.00 0.00 0.00 0.00 0.00 0.00 0.00 0.00 0.00 0.00 0.00 0.00 0.00 0.00 0.00 0.01 0.01 0.01 0.01 0.00 0.01 0.01 0.01 0.01 0.01 0.01 0.01 0.01 0.01 0.01 0.02 0.02 0.01 0.01 0.01 0.01 0.01 0.01 0.01 0.01 0.01
0.00 0.00 0.00 0.00 0.00 0.00 0.00 0.00 0.00 0.00 0.00 0.00 0.00 0.00 0.00 0.00 0.00 0.00 0.00 0.00 0.00 0.00 0.00 0.00 0.00 0.00 0.00 0.00 0.01 0.01 0.01 0.01 0.01 0.01 0.01 0.01 0.01 0.01 0.01 0.00 0.00 0.00 0.00 0.00
0.00 0.00 0.00 0.00 0.00 0.00 0.00 0.00 0.00 0.00 0.00 0.00 0.00 0.00 0.00 0.00 0.00 0.00 0.00 0.00 0.00 0.00 0.00 0.00 0.00 0.00 0.00 0.00 0.01 0.01 0.02 0.01 0.01 0.00 0.01 0.01 0.01 0.01 0.00 0.00 0.01 0.00 0.00 0.00
0.00 0.00 0.00 0.00 0.00 0.00 0.00 0.00 0.00 0.00 0.00 0.00 0.00 0.00 0.00 0.00 0.00 0.01 0.01 0.00 0.00 0.00 0.00 0.00 0.01 0.01 0.01 0.00 0.01 0.01 0.01 0.00 0.00 0.00 0.01 0.00 0.00 0.01 0.01 0.01 0.01 0.01 0.01 0.01
0.00 0.00 0.00 0.00 0.00 0.00 0.00 0.00 0.00 0.00 0.00 0.00 0.00 0.00 0.00 0.00 0.00 0.01 0.01 0.01 0.01 0.01 0.00 0.01 0.01 0.00 0.00 0.00 0.00 0.01 0.01 0.00 0.00 0.01 0.02 0.02 0.02 0.02 0.02 0.02 0.03 0.03 0.02 0.01
0.00 0.00 0.00 0.00 0.00 0.00 0.00 0.00 0.00 0.00 0.00 0.00 0.00 0.00 0.00 0.00 0.01 0.01 0.01 0.01 0.01 0.01 0.01 0.01 0.00 0.00 0.00 0.00 0.00 0.00 0.00 0.00 0.00 0.01 0.02 0.02 0.02 0.02 0.02 0.02 0.03 0.03 0.02 0.02
0.00 0.00 0.00 0.00 0.00 0.00 0.00 0.00 0.00 0.00 0.01 0.00 0.00 0.00 0.01 0.01 0.01 0.01 0.01 0.01 0.01 0.01 0.01 0.01 0.01 0.02 0.02 0.02 0.01 0.00 0.00 0.01 0.01 0.01 0.02 0.02 0.02 0.02 0.01 0.01 0.02 0.02 0.03 0.02
0.00 0.01 0.01 0.00 0.00 0.00 0.00 0.00 0.00 0.01 0.01 0.01 0.00 0.01 0.01 0.02 0.02 0.01 0.00 0.01 0.01 0.02 0.02 0.03 0.03 0.03 0.03 0.02 0.02 0.02 0.03 0.03 0.03 0.03 0.02 0.02 0.02 0.02 0.01 0.02 0.02 0.02 0.02 0.02
0.00 0.01 0.01 0.01 0.01 0.00 0.00 0.01 0.01 0.01 0.00 0.01 0.00 0.00 0.00 0.00 0.00 0.00 0.00 0.00 0.00 0.01 0.02 0.05 0.07 0.06 0.04 0.05 0.04 0.04 0.06 0.06 0.06 0.05 0.04 0.03 0.02 0.01 0.01 0.02 0.02 0.02 0.02 0.01
0.00 0.01 0.01 0.01 0.01 0.01 0.01 0.01 0.01 0.01 0.01 0.01 0.00 0.00 0.00 0.00 0.00 0.00 0.00 0.01 0.01 0.01 0.05 0.10 0.08 0.04 0.04 0.04 0.05 0.05 0.05 0.05 0.05 0.04 0.04 0.03 0.02 0.02 0.02 0.02 0.02 0.02 0.02 0.02
0.00 0.01 0.01 0.01 0.01 0.01 0.02 0.02 0.01 0.02 0.02 0.01 0.01 0.00 0.01 0.01 0.00 0.00 0.00 0.00 0.01 0.01 0.04 0.07 0.05 0.04 0.03 0.02 0.02 0.03 0.04 0.04 0.04 0.03 0.02 0.03 0.03 0.03 0.03 0.03 0.03 0.03 0.03 0.03
0.00 0.00 0.01 0.01 0.02 0.03 0.03 0.04 0.03 0.03 0.03 0.02 0.01 0.01 0.01 0.01 0.01 0.01 0.01 0.01 0.01 0.01 0.02 0.03 0.03 0.02 0.02 0.01 0.01 0.02 0.02 0.04 0.05 0.05 0.05 0.04 0.04 0.05 0.06 0.08 0.08 0.07 0.06 0.05
0.00 0.00 0.01 0.01 0.01 0.02 0.03 0.03 0.04 0.03 0.03 0.02 0.02 0.02 0.02 0.02 0.02 0.02 0.02 0.02 0.02 0.02 0.03 0.03 0.03 0.03 0.02 0.02 0.02 0.01 0.01 0.02 0.03 0.04 0.05 0.05 0.05 0.05 0.05 0.05 0.05 0.05 0.05 0.05
MSLP
1003.90 1004.65 1005.34 1005.95 1006.50 1006.99 1007.43 1007.83 1008.17 1008.45 1008.65 1008.76 1008.80 1008.77 1008.73 1008.71 1008.76 1008.90 1009.13 1009.44 1009.81 1010.19 1010.54 1010.83 1011.07 1011.26 1011.43 1011.62 1011.86 1012.15 1012.52 1012.94 1013.38 1013.81 1014.19 1014.52 1014.78 1014.99 1015.17 1015.34 1015.54 1015.77 1016.03 1016.31
1004.37 1004.98 1005.52 1006.01 1006.46 1006.89 1007.33 1007.76 1008.16 1008.50 1008.74 1008.87 1008.87 1008.77 1008.61 1008.45 1008.36 1008.37 1008.53 1008.81 1009.19 1009.63 1010.08 1010.49 1010.84 1011.12 1011.37 1011.59 1011.85 1012.14 1012.50 1012.91 1013.35 1013.78 1014.18 1014.53 1014.81 1015.05 1015.24 1015.43 1015.64 1015.87 1016.14 1016.42
1004.70 1005.16 1005.55 1005.91 1006.26 1006.66 1007.11 1007.59 1008.08 1008.51 1008.82 1008.97 1008.95 1008.76 1008.48 1008.16 1007.91 1007.77 1007.81 1008.03 1008.40 1008.88 1009.42 1009.95 1010.42 1010.82 1011.16 1011.47 1011.76 1012.09 1012.45 1012.86 1013.30 1013.73 1014.14 1014.50 1014.80 1015.04 1015.24 1015.44 1015.64 1015.87 1016.13 1016.41
1004.88 1005.18 1005.43 1005.66 1005.95 1006.33 1006.82 1007.39 1007.99 1008.52 1008.91 1009.10 1009.06 1008.79 1008.38 1007.89 1007.45 1007.14 1007.03 1007.16 1007.49 1008.00 1008.60 1009.23 1009.83 1010.36 1010.81 1011.20 1011.57 1011.93 1012.31 1012.73 1013.17 1013.61 1014.03 1014.39 1014.70 1014.95 1015.15 1015.34 1015.54 1015.75 1016.01 1016.29
1004.91 1005.07 1005.18 1005.33 1005.58 1005.98 1006.54 1007.21 1007.93 1008.58 1009.05 1009.28 1009.22 1008.87 1008.32 1007.66 1007.03 1006.54 1006.27 1006.27 1006.54 1007.04 1007.68 1008.39 1009.10 1009.74 1010.30 1010.78 1011.22 1011.63 1012.05 1012.48 1012.93 1013.39 1013.81 1014.19 1014.51 1014.76 1014.97 1015.16 1015.35 1015.56 1015.81 1016.09
1004.83 1004.87 1004.89 1004.98 1005.22 1005.66 1006.30 1007.09 1007.93 1008.69 1009.24 1009.50 1009.42 1009.00 1008.32 1007.49 1006.67 1005.99 1005.56 1005.43 1005.62 1006.07 1006.73 1007.49 1008.27 1009.00 1009.65 1010.21 1010.71 1011.17 1011.62 1012.08 1012.55 1013.02 1013.47 1013.87 1014.22 1014.49 1014.71 1014.90 1015.09 1015.30 1015.55 1015.83
1004.69 1004.65 1004.61 1004.68 1004.94 1005.44 1006.16 1007.05 1007.99 1008.83 1009.45 1009.73 1009.61 1009.12 1008.33 1007.36 1006.38 1005.53 1004.94 1004.68 1004.77 1005.17 1005.80 1006.58 1007.39 1008.17 1008.87 1009.49 1010.04 1010.54 1011.03 1011.52 1012.03 1012.53 1013.02 1013.46 1013.84 1014.14 1014.39 1014.59 1014.79 1015.00 1015.24 1015.52
1004.57 1004.47 1004.41 1004.48 1004.77 1005.32 1006.11 1007.07 1008.07 1008.97 1009.61 1009.89 1009.75 1009.20 1008.32 1007.24 1006.13 1005.16 1004.44 1004.07 1004.06 1004.38 1004.96 1005.71 1006.51 1007.30 1008.03 1008.67 1009.25 1009.78 1010.30 1010.83 1011.38 1011.93 1012.47 1012.96 1013.38 1013.73 1014.01 1014.24 1014.44 1014.65 1014.89 1015.16
1004.52 1004.40 1004.33 1004.42 1004.73 1005.31 1006.13 1007.11 1008.13 1009.03 1009.67 1009.93 1009.76 1009.17 1008.24 1007.10 1005.92 1004.87 1004.07 1003.60 1003.51 1003.74 1004.25 1004.94 1005.69 1006.45 1007.15 1007.79 1008.37 1008.92 1009.47 1010.04 1010.63 1011.23 1011.83 1012.38 1012.86 1013.26 1013.58 1013.82 1014.04 1014.24 1014.47 1014.74
1004.60 1004.47 1004.41 1004.51 1004.83 1005.40 1006.20 1007.15 1008.12 1008.97 1009.56 1009.78 1009.59 1008.98 1008.05 1006.91 1005.73 1004.66 1003.82 1003.31 1003.15 1003.30 1003.72 1004.32 1004.99 1005.67 1006.32 1006.92 1007.48 1008.03 1008.59 1009.18 1009.82 1010.47 1011.13 1011.74 1012.28 1012.72 1013.07 1013.34 1013.56 1013.77 1013.98 1014.24
1004.82 1004.71 1004.66 1004.75 1005.05 1005.57 1006.29 1007.14 1008.01 1008.76 1009.27 1009.43 1009.22 1008.63 1007.74 1006.66 1005.54 1004.52 1003.71 1003.20 1002.99 1003.08 1003.40 1003.89 1004.45 1005.03 1005.59 1006.12 1006.63 1007.15 1007.70 1008.31 1008.97 1009.67 1010.36 1011.02 1011.61 1012.10 1012.48 1012.77 1013.00 1013.20 1013.40 1013.65
1005.20 1005.12 1005.07 1005.15 1005.39 1005.81 1006.40 1007.09 1007.80 1008.40 1008.80 1008.90 1008.68 1008.14 1007.34 1006.37 1005.38 1004.47 1003.74 1003.26 1003.05 1003.08 1003.31 1003.67 1004.10 1004.55 1004.99 1005.43 1005.86 1006.33 1006.86 1007.45 1008.12 1008.83 1009.55 1010.23 1010.85 1011.37 1011.78 1012.09 1012.33 1012.53 1012.74 1012.97
1005.72 1005.66 1005.62 1005.66 1005.81 1006.10 1006.52 1007.02 1007.52 1007.95 1008.21 1008.25 1008.03 1007.55 1006.88 1006.08 1005.26 1004.51 1003.90 1003.49 1003.29 1003.28 1003.42 1003.66 1003.95 1004.26 1004.57 1004.88 1005.22 1005.60 1006.07 1006.63 1007.27 1007.96 1008.67 1009.37 1009.99 1010.53 1010.96 1011.29 1011.55 1011.77 1011.99 1012.24
1006.34 1006.31 1006.27 1006.26 1006.31 1006.45 1006.66 1006.94 1007.23 1007.47 1007.59 1007.56 1007.35 1006.96 1006.44 1005.83 1005.21 1004.65 1004.19 1003.88 1003.71 1003.67 1003.73 1003.85 1003.99 1004.15 1004.30 1004.48 1004.70 1004.99 1005.37 1005.85 1006.43 1007.07 1007.75 1008.42 1009.03 1009.57 1010.01 1010.37 1010.66 1010.92 1011.17 1011.45
1006.99 1006.99 1006.95 1006.89 1006.84 1006.82 1006.84 1006.90 1006.97 1007.03 1007.02 1006.93 1006.74 1006.46 1006.09 1005.69 1005.28 1004.91 1004.61 1004.39 1004.26 1004.19 1004.17 1004.17 1004.18 1004.18 1004.19 1004.22 1004.31 1004.47 1004.75 1005.13 1005.62 1006.18 1006.78 1007.40 1007.98 1008.51 1008.96 1009.34 1009.68 1009.98 1010.28 1010.61
1007.60 1007.64 1007.60 1007.50 1007.36 1007.20 1007.05 1006.91 1006.80 1006.69 1006.58 1006.46 1006.30 1006.11 1005.91 1005.68 1005.47 1005.28 1005.12 1004.99 1004.89 1004.79 1004.70 1004.59 1004.46 1004.32 1004.18 1004.08 1004.03 1004.07 1004.21 1004.47 1004.84 1005.29 1005.80 1006.34 1006.87 1007.37 1007.82 1008.23 1008.61 1008.97 1009.33 1009.71
1008.11 1008.18 1008.15 1008.02 1007.81 1007.55 1007.27 1006.99 1006.74 1006.51 1006.33 1006.19 1006.07 1005.98 1005.91 1005.85 1005.80 1005.76 1005.71 1005.64 1005.55 1005.43 1005.26 1005.05 1004.80 1004.52 1004.26 1004.02 1003.84 1003.74 1003.76 1003.89 1004.12 1004.45 1004.84 1005.28 1005.73 1006.18 1006.63 1007.05 1007.47 1007.88 1008.30 1008.73
1008.45 1008.55 1008.53 1008.39 1008.15 1007.83 1007.48 1007.12 1006.78 1006.50 1006.29 1006.15 1006.09 1006.09 1006.13 1006.19 1006.26 1006.31 1006.33 1006.30 1006.20 1006.03 1005.79 1005.48 1005.13 1004.75 1004.37 1004.02 1003.73 1003.52 1003.40 1003.39 1003.49 1003.67 1003.93 1004.25 1004.61 1005.00 1005.41 1005.83 1006.26 1006.71 1007.17 1007.64
1008.60 1008.71 1008.70 1008.57 1008.34 1008.01 1007.64 1007.27 1006.92 1006.64 1006.44 1006.34 1006.33 1006.40 1006.52 1006.67 1006.81 1006.91 1006.95 1006.91 1006.78 1006.56 1006.25 1005.86 1005.43 1004.96 1004.50 1004.07 1003.68 1003.37 1003.14 1003.00 1002.95 1002.99 1003.11 1003.29 1003.54 1003.84 1004.18 1004.57 1004.99 1005.45 1005.92 1006.41
1008.55 1008.66 1008.66 1008.56 1008.36 1008.08 1007.75 1007.41 1007.11 1006.88 1006.74 1006.69 1006.74 1006.86 1007.03 1007.22 1007.38 1007.48 1007.51 1007.44 1007.26 1006.97 1006.60 1006.15 1005.66 1005.14 1004.63 1004.14 1003.69 1003.30 1002.97 1002.72 1002.53 1002.42 1002.39 1002.42 1002.54 1002.72 1002.98 1003.30 1003.68 1004.11 1004.57 1005.05
1008.35 1008.44 1008.45 1008.39 1008.24 1008.03 1007.78 1007.53 1007.32 1007.17 1007.11 1007.13 1007.23 1007.39 1007.58 1007.76 1007.90 1007.97 1007.95 1007.82 1007.58 1007.24 1006.82 1006.33 1005.81 1005.27 1004.73 1004.22 1003.73 1003.28 1002.88 1002.52 1002.21 1001.96 1001.77 1001.65 1001.62 1001.67 1001.81 1002.03 1002.34 1002.72 1003.14 1003.59
1008.05 1008.11 1008.13 1008.10 1008.01 1007.89 1007.75 1007.61 1007.51 1007.47 1007.48 1007.56 1007.70 1007.87 1008.05 1008.20 1008.29 1008.30 1008.21 1008.01 1007.71 1007.32 1006.87 1006.36 1005.84 1005.31 1004.78 1004.27 1003.77 1003.29 1002.83 1002.39 1001.97 1001.58 1001.25 1000.97 1000.78 1000.68 1000.69 1000.80 1001.01 1001.31 1001.68 1002.09
1007.75 1007.77 1007.78 1007.77 1007.75 1007.71 1007.67 1007.65 1007.66 1007.70 1007.79 1007.92 1008.07 1008.23 1008.36 1008.45 1008.47 1008.39 1008.22 1007.96 1007.61 1007.19 1006.73 1006.24 1005.74 1005.24 1004.74 1004.26 1003.77 1003.28 1002.78 1002.27 1001.76 1001.26 1000.78 1000.36 1000.02 999.77 999.64 999.63 999.74 999.95 1000.26 1000.64
1007.50 1007.47 1007.46 1007.47 1007.49 1007.52 1007.57 1007.63 1007.72 1007.84 1007.97 1008.11 1008.25 1008.36 1008.43 1008.44 1008.36 1008.20 1007.96 1007.64 1007.26 1006.83 1006.38 1005.92 1005.47 1005.02 1004.58 1004.14 1003.68 1003.19 1002.67 1002.11 1001.53 1000.93 1000.34 999.80 999.33 998.95 998.70 998.58 998.59 998.73 998.98 999.33
1007.35 1007.26 1007.22 1007.22 1007.27 1007.34 1007.44 1007.56 1007.70 1007.83 1007.97 1008.09 1008.17 1008.22 1008.20 1008.11 1007.95 1007.71 1007.40 1007.04 1006.64 1006.22 1005.81 1005.40 1005.01 1004.63 1004.25 1003.86 1003.44 1002.97 1002.45 1001.87 1001.24 1000.58 999.91 999.28 998.71 998.24 997.89 997.69 997.63 997.72 997.94 998.27
1007.27 1007.13 1007.06 1007.05 1007.09 1007.17 1007.29 1007.42 1007.55 1007.66 1007.76 1007.82 1007.83 1007.78 1007.67 1007.48 1007.23 1006.92 1006.57 1006.18 1005.78 1005.39 1005.02 1004.67 1004.35 1004.04 1003.73 1003.39 1003.02 1002.58 1002.07 1001.49 1000.84 1000.16 999.46 998.79 998.17 997.66 997.27 997.02 996.93 996.99 997.19 997.52
Thickness
5835 5830 5825 5831 5837 5837 5834 5828 5823 5826 5833 5824 5819 5819 5821 5821 5817 5813 5811 5808 5805 5801 5803 5801 5798 5796 5792 5788 5784 5781 5778 5776 5773 5772 5771 5768 5768 5768 5768 5767 5764 5763 5763 5763
5821 5821 5835 5840 5837 5834 5829 5823 5822 5825 5830 5824 5820 5820 5827 5825 5821 5820 5816 5812 5810 5806 5803 5801 5799 5797 5794 5789 5786 5783 5780 5779 5776 5774 5772 5770 5769 5769 5769 5767 5764 5763 5763 5762
5817 5830 5839 5831 5825 5822 5824 5824 5822 5819 5822 5825 5819 5814 5820 5826 5828 5826 5823 5820 5818 5812 5807 5804 5801 5799 5797 5793 5789 5788 5783 5781 5779 5776 5775 5772 5770 5769 5768 5766 5764 5763 5762 5761
5819 5830 5827 5824 5822 5824 5817 5832 5828 5821 5814 5814 5816 5807 5820 5827 5823 5823 5823 5823 5821 5818 5814 5810 5806 5802 5800 5798 5795 5790 5786 5782 5780 5778 5776 5772 5769 5766 5766 5766 5765 5764 5762 5762
5812 5821 5819 5817 5825 5828 5825 5832 5827 5823 5818 5814 5817 5810 5823 5829 5820 5825 5828 5828 5827 5824 5820 5815 5812 5808 5805 5803 5799 5794 5789 5784 5782 5779 5776 5773 5772 5770 5770 5768 5765 5764 5763 5762
5818 5826 5826 5826 5832 5832 5828 5823 5820 5820 5818 5798 5812 5808 5814 5830 5830 5834 5836 5834 5831 5828 5824 5820 5817 5813 5809 5806 5802 5798 5791 5785 5783 5780 5778 5774 5772 5770 5768 5765 5764 5765 5765 5764
5798 5809 5821 5828 5817 5819 5820 5808 5791 5786 5790 5797 5817 5809 5818 5840 5844 5843 5841 5839 5837 5833 5827 5822 5818 5813 5810 5807 5803 5799 5793 5787 5785 5782 5779 5776 5773 5770 5767 5766 5765 5764 5765 5763
5784 5788 5809 5818 5816 5811 5815 5815 5794 5781 5787 5803 5809 5806 5828 5844 5848 5849 5847 5844 5840 5836 5832 5827 5822 5818 5813 5810 5805 5801 5795 5790 5787 5783 5780 5777 5775 5774 5773 5768 5768 5766 5765 5763
5789 5790 5810 5816 5822 5820 5809 5812 5825 5809 5804 5796 5809 5818 5831 5841 5841 5843 5843 5841 5838 5837 5834 5830 5827 5822 5818 5813 5808 5805 5798 5792 5788 5785 5781 5778 5776 5774 5772 5769 5767 5766 5763 5763
5797 5784 5798 5806 5813 5813 5819 5818 5809 5799 5780 5780 5797 5806 5817 5825 5830 5836 5838 5838 5838 5837 5835 5832 5828 5824 5821 5817 5812 5808 5802 5795 5791 5787 5783 5780 5776 5774 5771 5769 5766 5764 5762 5760
5796 5780 5784 5792 5791 5797 5800 5803 5804 5803 5800 5787 5785 5805 5835 5832 5835 5835 5837 5839 5839 5837 5836 5833 5829 5826 5822 5818 5813 5807 5803 5797 5792 5788 5784 5781 5777 5774 5771 5768 5765 5763 5761 5759
5787 5784 5775 5783 5799 5806 5804 5801 5800 5786 5784 5793 5794 5807 5840 5837 5838 5837 5836 5837 5838 5838 5838 5834 5830 5825 5820 5816 5812 5807 5803 5798 5793 5789 5784 5780 5777 5774 5771 5768 5765 5762 5759 5757
5777 5770 5756 5761 5773 5786 5789 5796 5800 5799 5793 5789 5787 5801 5832 5832 5832 5834 5833 5833 5833 5832 5833 5831 5826 5821 5817 5814 5810 5807 5803 5799 5795 5790 5784 5780 5776 5772 5769 5767 5764 5761 5758 5755
5772 5766 5761 5759 5770 5781 5777 5784 5791 5790 5782 5785 5791 5803 5816 5819 5820 5824 5826 5827 5829 5827 5826 5824 5820 5817 5815 5812 5808 5806 5802 5799 5794 5789 5783 5778 5775 5771 5768 5765 5762 5759 5756 5753
5764 5757 5763 5771 5778 5779 5778 5779 5783 5784 5789 5787 5795 5801 5809 5816 5817 5819 5820 5822 5823 5821 5820 5819 5816 5813 5811 5809 5806 5803 5800 5797 5792 5786 5781 5777 5774 5770 5767 5763 5760 5757 5754 5751
5754 5750 5754 5756 5767 5769 5767 5775 5779 5782 5786 5788 5793 5796 5813 5815 5816 5812 5813 5815 5815 5816 5817 5816 5814 5810 5808 5806 5803 5800 5797 5793 5789 5784 5779 5776 5772 5768 5764 5761 5758 5754 5751 5748
5744 5741 5739 5744 5756 5754 5751 5770 5775 5778 5784 5785 5782 5792 5803 5801 5803 5804 5808 5810 5811 5812 5812 5812 5811 5808 5806 5804 5802 5797 5794 5791 5786 5782 5778 5774 5770 5766 5762 5759 5755 5751 5747 5744
5730 5730 5736 5739 5737 5721 5760 5783 5780 5775 5779 5787 5789 5793 5796 5797 5801 5805 5806 5805 5806 5807 5807 5807 5806 5805 5804 5802 5799 5795 5792 5787 5783 5779 5775 5772 5768 5763 5759 5756 5751 5748 5744 5740
5729 5725 5728 5731 5727 5735 5755 5767 5771 5766 5767 5781 5782 5786 5789 5793 5793 5795 5802 5803 5802 5803 5804 5803 5803 5802 5800 5797 5795 5790 5786 5783 5779 5775 5771 5768 5764 5760 5756 5752 5748 5744 5740 5736
5720 5721 5722 5722 5717 5720 5748 5765 5771 5762 5752 5774 5777 5777 5779 5781 5776 5786 5795 5797 5797 5798 5798 5797 5797 5795 5792 5791 5789 5784 5781 5777 5774 5771 5768 5765 5761 5756 5752 5748 5744 5740 5736 5732
5705 5706 5711 5715 5716 5733 5752 5758 5756 5736 5747 5766 5770 5771 5772 5773 5778 5785 5788 5789 5789 5789 5790 5790 5788 5786 5785 5785 5782 5777 5775 5771 5769 5766 5762 5759 5755 5751 5747 5743 5739 5734 5730 5726
5705 5707 5705 5711 5708 5722 5743 5745 5741 5742 5752 5758 5761 5764 5765 5769 5773 5777 5777 5778 5779 5779 5780 5780 5778 5776 5776 5776 5774 5770 5767 5766 5763 5758 5754 5751 5748 5746 5741 5736 5732 5729 5724 5719
5701 5708 5715 5714 5718 5725 5734 5735 5737 5742 5743 5748 5753 5756 5759 5760 5763 5766 5767 5768 5769 5770 5770 5771 5770 5768 5767 5767 5766 5762 5760 5758 5755 5751 5747 5742 5740 5737 5733 5728 5724 5721 5718 5716
5690 5695 5699 5700 5711 5717 5721 5725 5730 5734 5736 5741 5747 5750 5753 5753 5755 5756 5757 5758 5758 5759 5760 5761 5761 5759 5757 5758 5757 5755 5753 5750 5746 5742 5739 5735 5731 5728 5725 5721 5719 5716 5712 5709
5681 5684 5687 5689 5698 5704 5709 5715 5721 5725 5730 5734 5739 5743 5746 5746 5746 5747 5747 5748 5749 5750 5751 5751 5750 5749 5748 5748 5747 5746 5744 5741 5737 5733 5730 5727 5725 5722 5717 5713 5710 5708 5703 5701
5675 5676 5678 5685 5693 5696 5699 5706 5712 5715 5718 5725 5728 5731 5736 5737 5737 5738 5738 5739 5740 5740 5740 5740 5739 5738 5738 5738 5737 5736 5735 5732 5728 5724 5721 5719 5717 5714 5711 5705 5699 5691 5691 5686